Wind_Speed
23 22 19 16 15 13 11 10 9 8 7 5 2 2 3 4 7 10 12 17 19 19 23 27 30 32 35 36 37 37 37 38 39 40 38 39 40 42 45 47 47 46 49
25 23 21 19 16 15 12 11 10 8 9 7 4 2 2 1 4 8 13 18 20 22 25 28 29 32 33 34 37 38 37 38 39 42 42 41 42 43 45 47 49 45 48
26 24 23 20 18 15 14 12 11 9 9 8 5 2 3 1 6 8 12 16 18 21 25 27 30 31 34 34 34 36 37 37 38 40 40 44 44 45 46 47 50 51 53
28 25 24 22 20 19 16 14 13 12 11 12 8 4 5 4 6 7 11 13 15 20 23 26 31 33 36 40 43 42 39 37 36 37 40 40 43 46 48 50 54 56 58
31 27 24 24 24 23 20 18 16 14 13 14 10 7 5 6 4 4 7 12 15 18 23 27 30 34 35 39 43 45 46 42 38 37 39 41 43 47 49 52 56 59 62
33 29 28 26 25 23 22 20 18 16 15 13 13 11 9 6 2 2 7 14 20 21 23 26 28 30 34 36 40 44 45 45 41 38 39 42 45 47 51 54 57 60 61
36 34 31 29 27 25 24 22 20 18 16 15 15 16 13 10 7 5 8 14 21 25 26 32 32 37 37 40 37 39 38 41 40 41 42 43 46 48 51 55 59 62 65
40 37 33 30 27 26 25 24 24 19 17 14 17 18 15 14 12 9 11 14 21 27 32 35 40 46 47 46 47 35 32 36 37 40 41 44 48 51 53 56 61 63 67
41 38 35 31 30 28 26 24 26 23 20 16 18 19 16 14 13 11 12 19 22 25 30 36 41 44 50 53 56 56 41 34 36 38 42 46 50 54 56 58 63 64 68
42 39 35 31 30 29 27 26 27 25 23 18 18 18 14 11 11 13 15 19 24 31 31 35 42 44 45 53 59 54 54 41 37 40 42 47 51 55 57 60 64 66 71
43 42 37 33 31 30 29 29 29 26 25 19 18 18 12 11 10 15 21 23 27 37 39 42 46 51 53 57 58 55 54 41 34 40 43 47 52 55 57 59 63 67 74
42 43 40 37 34 31 32 31 30 29 24 22 20 16 14 15 18 20 26 30 34 33 35 40 46 47 50 58 63 60 61 54 45 38 45 48 53 57 58 59 63 68 76
42 43 44 41 38 35 35 34 32 31 27 26 22 18 20 22 20 30 41 37 37 41 39 43 49 57 59 62 60 54 57 53 50 42 43 51 56 59 58 60 64 69 77
41 44 44 42 40 37 36 35 32 31 29 28 25 25 27 25 23 27 39 40 40 45 51 55 62 55 52 55 62 60 62 64 51 41 42 50 56 60 58 60 64 71 78
40 41 41 41 39 38 37 35 33 32 32 32 30 33 32 28 26 32 37 40 45 49 47 46 45 53 55 60 61 61 62 69 65 59 63 46 52 56 60 58 62 70 79
40 43 43 41 39 39 37 36 36 36 38 37 37 35 34 32 30 38 44 48 48 42 45 49 52 56 58 60 62 64 63 62 60 50 62 46 47 49 55 57 61 67 76
37 37 37 37 35 32 31 34 36 38 40 39 38 37 38 37 35 39 45 45 47 49 48 48 53 55 60 64 64 60 63 60 55 55 74 59 58 44 49 54 60 65 72
37 35 33 31 30 31 32 32 33 34 36 36 35 35 36 37 42 45 48 46 46 52 51 50 52 55 59 61 60 58 57 54 57 59 61 63 64 38 43 50 58 64 70
39 40 37 37 35 34 34 33 33 36 37 38 39 39 44 48 48 48 46 49 51 52 55 56 57 58 57 58 55 55 52 52 64 60 73 71 66 40 40 47 53 60 66
43 42 42 41 42 40 39 40 41 42 42 41 42 45 48 48 51 51 52 54 54 55 57 58 57 53 53 53 53 51 52 54 58 60 73 64 44 37 39 43 50 56 61
47 53 55 54 48 50 48 46 47 48 50 50 51 52 52 53 55 57 57 57 58 56 55 55 50 49 47 49 50 49 50 51 59 63 72 60 35 37 37 41 47 53 56
47 45 51 53 59 56 55 53 53 53 56 55 55 57 59 60 61 63 61 61 57 56 53 49 45 44 44 46 47 47 47 51 59 68 61 53 32 36 36 42 45 48 50
51 46 48 48 54 57 60 59 61 61 62 61 60 62 63 64 61 62 61 59 56 51 49 46 45 43 44 47 46 45 44 54 61 67 40 34 29 38 37 38 41 47 46
51 46 43 46 54 60 61 60 58 62 66 68 68 69 67 64 57 55 56 55 53 50 46 46 46 46 46 47 45 41 42 53 61 44 26 19 30 38 40 35 43 45 44
57 52 52 50 51 56 60 62 62 63 60 59 59 59 59 56 55 54 53 52 54 54 51 49 48 47 45 44 43 42 44 51 52 36 17 23 30 38 38 35 42 42 46
64 63 62 61 62 59 61 60 58 58 58 58 58 58 57 58 55 55 53 53 53 53 52 50 48 47 46 45 48 49 47 46 42 27 20 27 33 38 34 38 40 43 44
Wind_Direction
193 189 188 188 178 173 172 166 175 185 194 190 204 317 349 12 37 31 26 26 27 28 25 21 17 15 12 8 6 4 3 2 7 5 6 4 4 0 358 359 2 1 358
196 195 194 196 191 183 180 182 191 198 204 205 217 313 278 311 33 24 27 30 28 23 19 15 11 8 4 360 359 355 352 353 356 1 0 0 358 356 355 356 357 356 355
202 200 198 197 196 192 192 195 204 215 228 217 224 267 235 148 38 42 38 32 25 25 19 15 9 4 0 356 351 346 344 342 344 349 352 352 354 351 352 348 347 347 350
209 209 203 201 201 205 203 205 210 219 232 238 244 238 205 89 69 49 37 22 12 17 10 6 359 358 356 357 353 348 342 337 336 338 341 346 345 346 348 347 345 344 345
211 210 209 207 209 214 214 216 219 223 234 248 256 212 184 118 86 36 21 359 352 356 355 353 352 354 353 352 350 348 346 338 334 333 336 340 342 344 344 342 342 342 343
215 211 213 214 215 219 221 221 225 229 234 246 256 207 189 172 184 323 344 341 338 342 339 340 346 346 345 344 347 344 345 342 334 331 335 337 339 338 339 338 339 339 339
217 215 214 218 220 222 224 224 228 232 238 238 248 212 204 204 226 271 320 327 331 323 326 336 346 346 343 335 338 340 338 340 337 332 333 336 335 337 337 335 336 336 338
219 218 219 220 225 225 227 226 231 234 232 239 244 225 221 222 235 267 296 317 314 321 327 334 336 339 341 333 328 335 347 343 339 333 334 334 334 333 334 335 336 336 339
224 222 221 223 226 229 231 230 232 234 229 236 236 240 234 231 244 265 288 292 317 318 318 324 326 330 330 330 330 336 350 344 339 338 336 334 333 332 332 334 336 338 340
226 226 227 228 230 231 231 231 233 232 229 232 233 237 236 235 251 268 291 301 301 296 309 318 318 323 324 322 324 327 328 342 336 338 336 333 334 331 333 336 337 338 339
225 223 227 233 237 235 231 229 233 231 229 225 225 224 226 241 267 269 278 290 298 303 308 312 315 317 318 318 317 324 330 332 336 333 335 335 335 335 335 335 336 337 337
227 223 224 232 236 232 232 230 233 233 228 221 227 216 225 248 266 268 275 277 272 281 294 302 306 306 309 311 312 313 322 322 333 334 336 344 340 337 335 336 336 338 337
223 221 224 229 232 230 230 230 229 231 222 220 228 227 245 255 263 265 271 279 297 305 303 303 300 303 305 311 313 329 324 327 326 345 333 338 342 341 339 337 341 340 338
222 222 224 227 229 229 230 232 231 230 221 224 223 234 247 254 266 273 277 286 292 300 302 299 310 310 332 328 331 331 326 326 325 337 338 336 337 339 338 341 347 346 344
222 224 225 227 229 229 229 231 233 228 220 225 228 237 244 253 259 267 277 284 286 286 293 308 323 325 323 323 323 324 327 329 332 327 341 335 334 340 338 344 347 349 345
229 227 227 228 229 229 229 229 230 226 222 227 234 242 250 258 265 275 280 288 292 304 305 319 318 316 316 315 317 319 321 323 327 328 334 328 329 337 338 344 346 344 342
229 232 234 233 234 237 237 236 233 235 230 235 244 252 261 266 271 276 284 282 288 298 298 311 313 312 309 308 311 316 319 324 319 324 328 327 321 336 340 345 346 344 343
230 228 233 235 234 231 231 230 234 237 240 248 253 256 264 267 269 269 272 289 292 295 304 303 306 306 305 305 310 313 317 316 313 319 325 325 331 333 340 344 342 342 343
232 238 233 233 228 227 230 233 235 237 240 244 251 257 258 257 262 267 277 285 288 291 291 295 301 306 305 306 310 311 316 312 310 317 322 319 325 329 341 344 343 345 346
235 238 236 236 240 234 231 231 235 241 245 248 249 253 260 267 272 275 278 280 282 286 290 294 299 303 303 306 308 310 316 314 315 316 325 317 336 330 342 343 345 348 347
230 240 246 238 239 244 240 239 240 242 246 247 250 255 261 265 268 272 275 279 281 286 290 295 300 301 303 303 306 311 314 317 310 311 312 305 326 327 337 341 344 348 346
248 256 256 244 247 237 245 245 247 248 249 249 254 258 262 266 269 273 276 279 283 288 293 295 297 299 301 303 307 310 317 313 307 308 316 317 326 325 335 340 346 348 348
249 253 249 245 238 238 241 245 250 255 258 258 259 261 265 269 273 275 277 281 285 289 291 290 294 298 301 303 307 312 320 312 307 304 317 327 321 323 326 339 345 348 349
249 251 245 245 245 244 249 254 258 258 260 260 262 266 268 269 271 273 275 279 284 288 288 291 297 300 303 306 306 309 309 311 316 314 327 329 323 323 323 330 343 345 351
252 255 260 259 257 256 258 262 262 260 263 265 265 265 265 266 270 273 276 280 283 286 288 292 295 296 299 301 303 304 308 301 306 318 313 312 317 322 327 329 339 344 349
256 257 262 264 266 261 261 258 259 260 261 264 266 269 271 271 271 274 276 279 281 283 286 288 291 293 294 296 298 299 290 300 314 317 306 312 318 323 331 332 339 346 343
Height
5918 5921 5924 5927 5928 5931 5932 5933 5935 5937 5938 5939 5940 5941 5940 5940 5939 5938 5936 5934 5932 5929 5926 5922 5918 5915 5911 5907 5902 5896 5891 5885 5879 5873 5867 5861 5855 5849 5842 5835 5828 5820 5812
5915 5918 5922 5925 5927 5929 5931 5933 5934 5935 5936 5938 5938 5939 5939 5938 5938 5937 5935 5934 5931 5927 5924 5922 5918 5914 5910 5905 5901 5895 5889 5883 5877 5871 5865 5859 5853 5845 5838 5830 5823 5816 5807
5914 5916 5919 5923 5926 5927 5929 5931 5932 5933 5934 5935 5937 5938 5937 5937 5936 5935 5934 5932 5930 5927 5924 5921 5918 5913 5907 5902 5897 5892 5887 5881 5875 5869 5863 5856 5849 5841 5833 5826 5818 5810 5803
5911 5915 5917 5920 5924 5925 5926 5929 5929 5931 5932 5932 5934 5935 5935 5935 5934 5933 5933 5931 5929 5926 5923 5920 5916 5911 5906 5902 5896 5889 5883 5877 5871 5865 5858 5851 5843 5836 5830 5821 5812 5803 5794
5907 5911 5916 5918 5920 5922 5923 5926 5927 5929 5930 5930 5931 5933 5933 5932 5932 5932 5931 5929 5927 5925 5922 5918 5914 5910 5906 5898 5893 5887 5880 5874 5868 5860 5853 5846 5838 5831 5823 5815 5806 5796 5783
5904 5908 5911 5914 5916 5919 5920 5922 5925 5927 5928 5928 5929 5930 5930 5930 5931 5930 5929 5928 5925 5923 5920 5916 5912 5908 5903 5897 5890 5883 5876 5869 5864 5856 5849 5841 5833 5825 5817 5808 5798 5787 5779
5900 5903 5905 5909 5912 5915 5917 5919 5921 5923 5924 5925 5926 5927 5927 5927 5928 5927 5927 5925 5923 5920 5917 5912 5909 5906 5899 5894 5889 5881 5871 5864 5858 5852 5844 5836 5827 5820 5811 5801 5789 5779 5768
5893 5897 5901 5904 5908 5910 5912 5915 5917 5919 5921 5922 5922 5923 5924 5924 5924 5923 5923 5922 5920 5917 5913 5908 5906 5902 5896 5890 5882 5876 5866 5861 5853 5846 5838 5831 5823 5814 5803 5792 5782 5771 5760
5889 5893 5897 5900 5902 5905 5908 5910 5912 5914 5916 5918 5919 5920 5920 5921 5920 5919 5919 5917 5916 5912 5909 5905 5902 5897 5891 5884 5877 5869 5860 5856 5848 5840 5833 5825 5816 5806 5796 5785 5774 5763 5752
5884 5890 5894 5896 5898 5900 5903 5904 5906 5909 5911 5912 5914 5916 5916 5917 5916 5915 5913 5913 5911 5906 5904 5901 5897 5892 5887 5880 5872 5866 5857 5851 5844 5835 5826 5817 5808 5798 5789 5778 5766 5755 5742
5876 5881 5887 5891 5893 5896 5897 5897 5900 5903 5906 5908 5909 5911 5912 5912 5911 5910 5909 5907 5906 5902 5899 5897 5893 5888 5882 5875 5866 5859 5854 5845 5836 5830 5820 5811 5801 5790 5780 5770 5758 5745 5731
5867 5874 5879 5883 5886 5888 5891 5892 5894 5897 5900 5902 5904 5905 5906 5907 5906 5904 5902 5901 5897 5894 5895 5892 5887 5881 5875 5867 5859 5853 5847 5838 5827 5822 5815 5804 5793 5784 5774 5763 5750 5737 5722
5860 5866 5868 5872 5876 5880 5883 5884 5886 5890 5894 5896 5898 5899 5901 5902 5901 5897 5890 5890 5892 5891 5887 5885 5880 5874 5867 5860 5850 5846 5839 5829 5824 5814 5807 5800 5788 5778 5769 5756 5743 5730 5715
5851 5856 5859 5864 5867 5871 5876 5879 5881 5884 5888 5891 5892 5894 5894 5894 5895 5894 5887 5887 5888 5886 5883 5877 5872 5863 5861 5855 5847 5840 5832 5823 5815 5807 5798 5793 5784 5774 5764 5752 5738 5725 5710
5843 5848 5852 5856 5860 5863 5867 5871 5875 5878 5881 5884 5886 5886 5887 5888 5889 5885 5883 5883 5881 5877 5874 5869 5864 5861 5852 5845 5839 5834 5827 5821 5812 5803 5795 5787 5780 5770 5760 5748 5734 5721 5708
5839 5841 5845 5849 5852 5856 5859 5863 5865 5868 5871 5875 5877 5878 5880 5881 5882 5879 5876 5874 5871 5868 5864 5863 5859 5854 5847 5840 5833 5825 5821 5816 5807 5799 5790 5781 5773 5764 5755 5744 5731 5718 5704
5831 5836 5839 5843 5846 5850 5854 5857 5859 5862 5864 5867 5870 5871 5872 5873 5872 5870 5868 5866 5864 5859 5857 5856 5853 5846 5838 5831 5825 5820 5815 5809 5800 5793 5786 5775 5765 5759 5750 5740 5728 5714 5700
5825 5828 5833 5837 5840 5843 5845 5848 5852 5855 5858 5861 5861 5862 5863 5862 5861 5859 5858 5855 5855 5851 5849 5847 5843 5838 5830 5823 5818 5813 5808 5802 5794 5785 5777 5767 5760 5753 5745 5735 5724 5710 5697
5818 5822 5825 5829 5831 5834 5837 5839 5843 5847 5849 5851 5851 5851 5850 5849 5849 5849 5849 5846 5845 5842 5839 5837 5833 5828 5821 5815 5810 5804 5799 5795 5784 5779 5771 5762 5751 5747 5738 5730 5720 5708 5695
5808 5812 5816 5820 5825 5825 5826 5829 5831 5834 5837 5840 5841 5840 5839 5839 5838 5837 5837 5836 5834 5832 5828 5826 5822 5818 5812 5806 5800 5796 5792 5787 5780 5773 5764 5753 5750 5743 5734 5725 5716 5705 5693
5797 5802 5805 5808 5812 5816 5818 5819 5821 5823 5825 5827 5828 5828 5829 5828 5827 5826 5825 5823 5822 5820 5818 5814 5811 5807 5803 5797 5792 5788 5784 5779 5771 5764 5754 5746 5745 5739 5730 5721 5712 5703 5691
5785 5788 5792 5797 5797 5801 5805 5806 5807 5809 5811 5813 5815 5815 5815 5814 5814 5813 5812 5810 5809 5808 5806 5802 5800 5797 5793 5788 5784 5780 5775 5768 5762 5754 5752 5744 5743 5735 5728 5718 5709 5700 5688
5774 5776 5778 5781 5785 5788 5790 5792 5793 5795 5797 5799 5801 5801 5801 5801 5801 5800 5799 5797 5798 5797 5794 5791 5789 5785 5782 5778 5775 5771 5766 5760 5753 5749 5741 5738 5736 5730 5723 5715 5707 5698 5687
5760 5764 5767 5769 5771 5774 5776 5777 5779 5781 5782 5783 5785 5785 5785 5785 5786 5786 5785 5784 5784 5784 5782 5780 5778 5775 5772 5769 5765 5761 5756 5750 5746 5746 5737 5731 5729 5725 5718 5711 5705 5696 5686
5744 5747 5750 5754 5756 5758 5759 5760 5762 5764 5766 5766 5767 5768 5769 5770 5770 5771 5771 5771 5771 5771 5770 5768 5767 5764 5761 5759 5756 5751 5746 5741 5740 5734 5729 5727 5722 5718 5713 5707 5702 5694 5686
5728 5731 5734 5737 5740 5742 5743 5745 5746 5747 5748 5749 5751 5752 5752 5753 5754 5756 5756 5757 5757 5758 5757 5755 5754 5752 5749 5748 5744 5741 5738 5735 5731 5728 5725 5722 5718 5713 5708 5702 5697 5692 5684